Location: Arran
(51.9410°N, 101.7372°W)
Time: 23:15:56
(UTC+00:00)

BEESAT 2 - Visible Passes

Search period start: 06 December 2023 00:00
Search period end: 16 December 2023 00:00
Orbit: 355 x 379 km, 64.9° (Epoch: 06 December)

Date Brightness Start Highest point End Pass type
(mag) Time Alt. Az. Time Alt. Az. Time Alt. Az.
06 Dec ? 12:28:37 72° SSW 12:28:53 85° SE 12:32:00 10° NE visible
07 Dec ? 11:28:12 14° ENE 11:28:12 14° ENE 11:28:46 10° ENE visible
07 Dec ? 13:00:09 31° NW 13:00:28 32° NW 13:03:18 10° NNE visible
08 Dec ? 11:59:13 19° NE 11:59:13 19° NE 12:00:14 10° NE visible
08 Dec ? 13:31:08 15° NW 13:32:00 16° NNW 13:34:03 10° NNE visible
09 Dec ? 12:29:47 19° NNE 12:29:47 19° NNE 12:30:57 10° NNE visible
09 Dec ? 14:03:07 10° NNW 14:03:27 10° NNW 14:03:47 10° N visible
10 Dec ? 12:59:56 14° N 12:59:56 14° N 13:01:06 10° NNE visible
